User: anonymous   Login
Location: Theydon Bois
(51.6750°N, 0.1050°E)
Time: 04:50:44
(UTC+00:00)
Language:

NOSS 2-1 (E) - Orbit

View from above orbital plane
View from above orbital plane
View from above satellite
View from above satellite

Ground track
Ground track

The orbit data is extracted from the following two-line orbital elements,

1 20642U 90050E   17345.26958987 0.00000000  00000-0  00000-0 0    05
2 20642  63.3365  95.7000 0801500  31.1072 328.8928 13.41732864    00
Epoch (UTC): 11 December 2017 06:28:12
Eccentricity: 0.0801500
inclination: 63.3365°
perigee height: 503 km
apogee height: 1702 km
right ascension of ascending node: 95.7000°
argument of perigee: 31.1072°
revolutions per day: 13.41732864
mean anomaly at epoch: 328.8928°
orbit number at epoch: 0

The dashed part of the orbit path shows where the satellite is in the earth's shadow,  

DLR